Location: Guardianu Point
(39.4500°N, 8.4167°E)
Time: 00:41:42
(UTC+00:00)

Daily predictions for brighter satellites

Satellite Brightness Start Highest point End
(mag) Time Altitude Azimuth Time Altitude Azimuth Time Altitude Azimuth
Cosmos 1656 Rocket 4.5 00:01:12 10° NNW 00:06:41 46° ENE 00:08:42 33° ESE
Cosmos 921 Rocket 4.4 00:07:37 29° ENE 00:07:37 29° ENE 00:10:32 10° NE
SL-16 R/B 3.8 00:05:46 21° W 00:07:52 27° NW 00:12:38 10° N
Cosmos 405 Rocket 3.9 00:10:16 39° N 00:10:16 39° N 00:12:40 10° N
Cosmos-2242 4.1 00:07:08 10° NNW 00:10:23 38° WNW 00:10:23 38° WNW
Cosmos 2369 Rocket 2.0 00:17:06 10° NNW 00:22:50 83° WSW 00:23:24 73° S
Cosmos 468 Rocket 4.3 00:22:37 50° W 00:23:01 51° WNW 00:28:07 10° N
Cosmos 2279 Rocket 4.0 00:17:57 10° NNW 00:24:06 64° W 00:24:57 58° SW
Cosmos 2058 3.3 00:27:05 60° NNE 00:27:05 60° NNE 00:30:29 10° N
Cosmos 1570 Rocket 4.4 00:27:35 49° ESE 00:27:56 50° ESE 00:32:58 10° NNE
ATLAS 5 CENTAUR R/B 2.5 00:29:08 36° ENE 00:29:08 36° ENE 00:32:06 10° NE
USA 267 3.2 00:34:12 52° S 00:35:30 62° SW 00:42:00 10° NW
Cosmos 1763 Rocket 4.2 00:35:46 37° W 00:36:22 39° WNW 00:41:10 10° N
USA 307 3.1 00:39:13 68° NNE 00:39:13 68° NNE 00:42:59 10° NE
Cosmos 2263 4.0 00:33:06 10° NNW 00:38:48 85° WSW 00:39:42 65° S
MOZ.5/SAFIR/RUBIN 5/SL-8 3.9 00:39:14 63° ESE 00:39:46 70° ENE 00:44:32 10° N
Cosmos 2098 Rocket 3.3 00:40:13 73° S 00:40:45 89° E 00:45:22 10° N
Cosmos 2221 2.5 00:36:39 10° N 00:40:40 75° NNE 00:40:40 75° NNE
BREEZE-M R/B 2.8 00:41:41 56° E 00:41:41 56° E 00:45:00 10° ENE
Cosmos 2208 Rocket 4.3 00:43:42 52° SE 00:44:31 59° ESE 00:49:53 10° NNE
NOSS 2-2 (D) 4.1 00:46:00 41° NE 00:46:00 41° NE 00:48:27 10° NE
Cosmos 1606 3.2 00:45:09 10° N 00:48:37 55° ENE 00:48:37 55° ENE
USA 308 3.1 00:54:37 62° NW 00:54:44 63° NW 00:58:57 10° NE
Nadezhda 4 Rocket 4.1 00:54:45 50° SW 00:56:07 62° W 01:02:12 10° N
Cosmos 2026 Rocket 4.2 00:55:14 39° SSE 00:57:29 63° E 01:03:45 10° NNE
Resurs 1-4 Rocket 2.1 00:52:57 10° NNE 00:58:18 73° ESE 00:59:27 54° SSE
Helios 1B rocket 3.0 00:54:25 10° NNE 00:58:22 47° E 00:58:31 47° ESE
Meteor 2-2 Rocket 4.5 00:52:41 10° NNW 00:58:37 59° W 00:59:45 50° SW
X-37B 2.4 01:05:32 26° NNW 01:06:28 31° N 01:09:22 10° ENE
ADEOS II 3.0 01:02:58 10° NNE 01:07:54 39° E 01:09:52 29° SE
Helios 1A 3.7 01:09:08 39° WNW 01:09:08 39° WNW 01:12:29 10° NNW
TIMED 4.4 01:08:41 70° W 01:08:55 72° WNW 01:13:17 10° NNE
Cosmos 1943 Rocket 4.1 01:08:41 10° WNW 01:10:22 14° W 01:10:22 14° W
USA 305 3.8 01:11:07 36° WNW 01:12:04 42° NW 01:16:08 10° NE
Cosmos 540 Rocket 4.4 01:12:18 30° W 01:13:23 33° WNW 01:18:01 10° N
Cosmos 1437 Rocket 4.3 01:10:21 10° NNW 01:12:36 24° WNW 01:12:36 24° WNW
ATLAS 5 CENTAUR R/B 4.3 01:09:37 30° SSW 01:13:54 35° S 01:52:51 10° ESE
NPP 3.6 01:09:54 10° NNE 01:15:20 82° ESE 01:16:56 47° S
CZ-2D R/B 2.0 01:15:07 10° N 01:20:19 73° WNW 01:21:41 49° SW
IDEFIX/ARIANE 42P 4.2 01:16:03 10° NE 01:20:27 27° E 01:23:32 16° SE
Lacrosse 4 Rocket 1.6 01:17:26 10° NNW 01:21:30 63° ENE 01:22:58 36° SE
NOSS 2-2 (E) 4.3 01:23:28 29° WNW 01:23:43 30° NW 01:26:59 10° NNE
Meteor 2-3 Rocket 3.8 01:23:38 36° SSE 01:25:54 69° E 01:31:28 10° NNE
Cosmos 1242 Rocket 3.9 01:26:50 10° NNW 01:29:10 27° WNW 01:29:10 27° WNW
UNK 3.6 01:29:27 52° S 01:30:31 73° W 01:35:08 10° NNW
DELTA 2 R/B (1) 3.5 01:27:53 21° W 01:31:42 88° N 01:37:16 10° E
Aureole 3 Rocket 3.6 01:29:22 10° NNW 01:33:36 55° W 01:35:01 42° SW
SL-16 R/B 2.5 01:31:08 34° S 01:33:55 68° WSW 01:40:06 10° NNW
USA 306 4.4 01:32:46 21° WNW 01:34:41 31° NNW 01:38:29 10° NNE
ERBS 2.3 01:35:40 70° ENE 01:35:40 70° ENE 01:38:38 10° NE
IRS-1D 4.0 01:30:30 10° NNE 01:35:31 54° E 01:37:50 29° SSE
NOSS 2-2 (C) 4.4 01:37:08 27° WNW 01:37:39 28° NW 01:40:49 10° NNE
Cosmos 1092 Rocket 4.3 01:36:11 35° SW 01:38:19 48° WNW 01:44:16 10° N
Cosmos 1766 Rocket 4.1 01:39:26 30° SSE 01:41:22 53° E 01:45:44 10° NNE
CZ-4C R/B 2.7 01:43:51 29° SSE 01:45:44 42° ESE 01:50:50 10° NE
GPS 2-04 Rocket1 2.9 01:47:23 48° S 01:47:23 48° S 01:51:00 10° ESE
ADEOS Rocket 3.3 01:42:53 14° SSE 01:49:25 90° E 01:56:09 10° NNW
Tianhe-1 2.7 01:51:16 24° SE 01:51:16 24° SE 01:53:17 10° E
Meteor 1-26 Rocket 4.4 01:44:59 10° N 01:50:55 83° E 01:55:41 17° SSE
Cosmos 2151 3.7 01:53:31 33° WSW 01:54:15 36° WNW 01:58:09 10° N
SeaSat 1 3.5 01:50:40 10° NE 01:55:15 38° ESE 01:58:13 19° SSE
Okean 3 Rocket 3.6 01:53:27 32° S 01:55:25 75° E 01:59:48 10° N
USA 290 4.5 01:55:28 15° WNW 01:55:35 15° WNW 01:57:30 10° NNW
Cosmos 1812 4.4 01:54:19 10° NNE 01:57:46 31° ENE 02:01:12 10° SE
Cosmos 2298 Rocket 4.0 01:57:24 10° NNW 02:02:43 70° WSW 02:06:41 18° S
Cosmos 1809 Rocket 4.5 02:00:58 27° SSW 02:04:24 67° W 02:10:34 10° N
Cosmos 1655 Rocket 4.1 02:01:38 19° S 02:06:15 77° E 02:12:30 10° N
Cosmos 1271 Rocket 3.1 02:03:54 10° N 02:07:37 60° E 02:10:36 15° SSE
NOSS 5 (C) 4.5 02:08:31 10° NW 02:11:47 66° WSW 02:16:00 10° SSE
Cosmos 1782 2.7 02:08:46 10° NNW 02:12:46 70° W 02:14:52 27° S
ATLAS 5 CENTAUR R/B 3.5 02:10:38 12° W 02:13:00 18° NW 02:16:01 10° N
IRIDIUM 104 4.4 02:07:59 10° N 02:13:08 62° W 02:16:20 23° SSW
Cosmos 2150 Rocket 4.0 02:08:39 10° NNW 02:13:46 59° WSW 02:17:53 16° S
Cosmos 2292 Rocket 3.9 02:16:42 25° W 02:16:49 25° WNW 02:19:20 10° NNW
CZ-4C R/B 3.2 02:15:23 13° SSE 02:18:21 68° ENE 02:21:47 10° N
Cosmos 1125 Rocket 3.5 02:13:34 10° NNW 02:18:48 66° WSW 02:24:01 10° S
OAO 3 Rocket 4.5 02:18:24 21° S 02:19:51 24° SSE 02:23:39 10° ESE
CZ-4B R/B 4.3 02:15:23 10° NNE 02:20:28 48° E 02:25:26 10° S
Meteor 1-29 4.3 02:20:18 10° NNW 02:23:09 25° WNW 02:24:01 22° W
Delta 2 Rocket 3.7 02:22:06 28° SW 02:23:41 41° S 02:27:19 10° E
CENTAUR R/B 4.4 02:16:08 10° NNW 02:23:59 47° NE 02:32:28 10° ESE
MSX 3.9 02:18:21 10° NNE 02:24:08 78° ESE 02:29:05 14° S
Cosmos 2084 Rocket 3.4 02:23:32 25° SSW 02:25:37 65° ESE 02:29:33 10° NE
ARIANE 5 R/B 2.9 02:22:13 10° NNE 02:27:10 58° E 02:31:56 11° S
BREEZE-M DEB (TANK) 3.6 02:26:10 21° SSW 02:28:48 41° SSE 02:31:40 10° ENE
Cosmos 1833 Rocket 3.2 02:24:22 14° S 02:29:06 56° ESE 02:34:37 10° NNE
NOSS 3 (A) 4.3 02:29:46 39° ENE 02:29:46 39° ENE 02:31:01 10° NE
FALCON 9 DEB 3.8 02:27:13 10° WNW 02:30:15 31° SW 02:33:17 10° SSE
IRS-P3 4.2 02:25:57 10° NNE 02:31:18 83° ESE 02:35:58 14° SSW
Meteor 1-28 Rocket 3.7 02:29:50 24° SSW 02:31:37 40° W 02:35:14 10° NNW
Cosmos 2315 Rocket 4.4 02:26:38 10° N 02:32:47 64° E 02:38:55 10° SSE
Meteor 2-6 Rocket 4.3 02:27:08 10° N 02:33:02 84° E 02:38:44 10° S
ASTEX 1 3.4 02:31:07 13° S 02:35:26 66° W 02:40:21 10° NNW
Resurs 1-4 Rocket 4.1 02:34:37 10° NNW 02:37:27 15° WNW 02:40:17 10° W
X-37B 0.4 02:40:09 10° WNW 02:43:19 82° SSW 02:46:29 10° ESE
S3M 4.2 02:38:27 10° NNW 02:44:26 54° W 02:50:28 10° SSW
Cosmos 1500 Rocket 3.7 02:41:16 10° S 02:45:35 72° E 02:49:53 10° NNE
ADEOS II 3.4 02:43:07 10° NNW 02:47:20 25° WNW 02:50:49 13° WSW
Cosmos 1328 Rocket 4.0 02:44:44 10° NNW 02:48:50 41° W 02:52:32 12° SSW
ATLAS 2A CENTAUR R/B 4.2 02:47:41 14° SSW 02:49:39 18° SSE 02:55:04 10° ESE
Cosmos 1743 Rocket 3.7 02:45:56 10° S 02:50:19 80° E 02:54:45 10° N
Gbstr 26 Del rocket 4.4 02:47:18 12° SSW 02:51:05 36° SE 02:56:08 10° ENE
FALCON 9 DEB 3.0 02:48:00 10° NW 02:51:07 74° NE 02:54:13 10° SE
Cosmos 2082 Rocket 3.2 02:48:54 10° S 02:54:09 43° ESE 02:59:27 10° NE
SL-08 R/B 3.3 02:50:18 10° SSE 02:54:57 88° E 02:59:43 10° NNW
CZ-3B R/B 3.1 02:56:17 10° NW 02:59:15 31° NNE 03:01:17 10° E
IDEFIX/ARIANE 42P 3.4 02:55:19 10° N 03:00:02 35° WNW 03:04:21 12° SW
SL-4 R/B 3.4 02:56:50 10° NW 03:00:07 34° NNE 03:03:16 10° E
PAYLOAD A 4.4 02:55:40 10° NNE 03:00:44 65° ESE 03:05:58 10° S
Cosmos 1862 4.4 03:03:04 13° SW 03:06:05 30° WNW 03:09:40 10° NNW
FALCON 9 DEB 3.0 03:03:18 10° WNW 03:06:17 47° SW 03:09:13 10° SSE
CZ-2C R/B 2.7 03:02:22 10° NNE 03:07:17 69° E 03:12:00 10° S
Spot 4 Rocket 4.1 03:02:24 10° NNE 03:07:34 85° ESE 03:12:42 10° SSW
BREEZE-M DEB (TANK) 3.2 03:05:26 10° NW 03:07:40 41° NNE 03:11:42 10° ESE
Sich 1 3.9 03:05:29 10° S 03:09:44 53° E 03:14:03 10° NNE
Lacrosse 5 rocket 1.5 03:06:17 10° NW 03:09:54 67° NE 03:13:40 10° SE
USA 281 3.4 03:04:10 10° S 03:10:31 51° WSW 03:16:54 10° NNW
Cosmos 2228 Rocket 3.3 03:09:08 10° N 03:13:38 77° E 03:18:04 10° SSE
FALCON 9 DEB 2.9 03:11:35 10° WNW 03:14:37 53° SW 03:17:38 10° SE
Cosmos 44 3.7 03:09:58 10° SW 03:15:06 65° WNW 03:20:31 10° NNE
Genesis I 4.3 03:11:39 10° NNW 03:15:37 52° NE 03:19:35 10° SE
FALCON 9 DEB 3.3 03:14:00 10° WNW 03:16:55 38° SW 03:19:47 10° SSE
DELTA 2 R/B (1) 3.6 03:12:37 10° W 03:18:07 66° SSW 03:23:37 10° ESE
COSMOS 2406 3.5 03:15:17 10° SW 03:20:50 57° WNW 03:26:26 10° NNE
Cosmos 1515 Rocket 4.4 03:17:13 10° NNW 03:21:11 33° W 03:25:11 10° SSW
ALOS 2.9 03:18:18 10° NNE 03:22:56 58° E 03:27:30 10° S
GPS 2-04 Rocket1 3.5 03:22:48 10° W 03:26:16 29° SSW 03:29:35 10° SE
Tianhe-1 1.1 03:24:00 10° W 03:27:08 81° NNW 03:30:19 10° ENE
CZ-2C R/B 2.2 03:24:22 10° SW 03:27:14 24° SSE 03:29:59 10° ESE
Cosmos 1656 4.1 03:23:51 10° NW 03:29:11 42° WSW 03:34:28 10° S
Cosmos 158 Rocket 4.1 03:25:20 10° S 03:30:09 74° ESE 03:35:05 10° NNE
NOSS 3-4 (A) 3.4 03:25:04 10° SSW 03:30:51 87° WNW 03:37:00 10° NNE
NOSS 3-4 (C) 3.4 03:25:11 10° SSW 03:30:58 87° WNW 03:37:08 10° NNE
